TimeCDT,TemperatureF,Dew PointF,Humidity,Sea Level PressureIn,VisibilityMPH,Wind Direction,Wind SpeedMPH,Gust SpeedMPH,PrecipitationIn,Events,Conditions,WindDirDegrees,DateUTC
12:04 AM,42.8,39.2,87,29.98,7.0,North,12.7,-,0.01,Rain-Thunderstorm,Rain,360,2013-04-16 05:04:00
12:39 AM,42.8,39.2,87,30.01,10.0,North,10.4,-,0.03,Rain,Light Rain,10,2013-04-16 05:39:00
12:54 AM,43.0,39.9,89,30.04,3.0,North,4.6,-,0.10,Rain,Rain,350,2013-04-16 05:54:00
1:54 AM,43.0,37.9,82,30.02,10.0,North,8.1,-,0.04,,Overcast,360,2013-04-16 06:54:00
2:54 AM,41.0,37.0,86,30.03,6.0,North,11.5,-,0.04,Rain,Light Rain,10,2013-04-16 07:54:00
3:54 AM,41.0,37.9,89,30.05,10.0,North,9.2,-,0.00,,Overcast,10,2013-04-16 08:54:00
4:54 AM,42.1,37.9,85,30.08,10.0,North,9.2,-,0.01,,Overcast,10,2013-04-16 09:54:00
5:54 AM,42.1,37.0,82,30.09,10.0,North,11.5,-,N/A,,Overcast,10,2013-04-16 10:54:00
6:54 AM,42.1,37.0,82,30.11,10.0,NNE,12.7,-,N/A,,Overcast,20,2013-04-16 11:54:00
7:54 AM,42.1,37.0,82,30.15,10.0,NNE,11.5,-,0.00,,Overcast,20,2013-04-16 12:54:00
8:11 AM,42.8,37.4,81,30.13,10.0,NE,9.2,-,N/A,,Overcast,40,2013-04-16 13:11:00
8:54 AM,42.1,36.0,79,30.14,10.0,NE,15.0,-,0.01,,Overcast,40,2013-04-16 13:54:00
9:54 AM,41.0,34.0,76,30.19,10.0,North,6.9,-,0.01,Rain,Light Rain,10,2013-04-16 14:54:00
10:54 AM,43.0,37.0,80,30.16,10.0,NNE,16.1,-,0.06,,Overcast,20,2013-04-16 15:54:00
11:51 AM,42.8,35.6,76,30.16,10.0,NE,11.5,18.4,0.00,Rain-Thunderstorm,Light Rain,40,2013-04-16 16:51:00
11:54 AM,44.1,36.0,73,30.19,10.0,NNE,9.2,18.4,0.00,Rain-Thunderstorm,Light Rain,20,2013-04-16 16:54:00
12:06 PM,46.4,37.4,71,30.18,10.0,North,12.7,-,0.00,Rain,Light Rain,10,2013-04-16 17:06:00
12:54 PM,46.9,36.0,66,30.17,10.0,NE,11.5,-,0.00,,Overcast,40,2013-04-16 17:54:00
1:54 PM,48.0,36.0,63,30.16,10.0,NNE,13.8,-,N/A,,Overcast,30,2013-04-16 18:54:00
2:54 PM,48.9,37.0,64,30.16,10.0,NE,12.7,-,0.00,,Overcast,40,2013-04-16 19:54:00
3:54 PM,48.9,37.0,64,30.14,10.0,NE,15.0,-,N/A,,Overcast,40,2013-04-16 20:54:00
4:54 PM,48.9,37.9,66,30.15,10.0,NE,10.4,-,N/A,,Overcast,40,2013-04-16 21:54:00
5:54 PM,48.9,37.9,66,30.15,10.0,NE,10.4,-,N/A,,Overcast,40,2013-04-16 22:54:00
6:54 PM,48.9,37.9,66,30.16,10.0,NE,8.1,-,N/A,,Overcast,40,2013-04-16 23:54:00
7:54 PM,48.9,39.0,69,30.16,10.0,ENE,9.2,-,N/A,,Overcast,60,2013-04-17 00:54:00
8:54 PM,48.9,37.9,66,30.17,10.0,NE,8.1,-,N/A,,Overcast,50,2013-04-17 01:54:00
9:54 PM,48.9,39.0,69,30.17,10.0,ENE,8.1,-,N/A,,Overcast,70,2013-04-17 02:54:00
10:54 PM,48.9,39.0,69,30.16,10.0,ENE,9.2,-,N/A,,Overcast,70,2013-04-17 03:54:00
11:02 PM,48.2,39.2,71,30.15,10.0,East,6.9,-,N/A,,Overcast,80,2013-04-17 04:02:00
11:54 PM,48.9,39.0,69,30.17,10.0,ENE,8.1,-,N/A,,Overcast,70,2013-04-17 04:54:00